Location: Penzberg
(47.7615°N, 11.3159°E)
Time: 15:08:12
(UTC+01:00)

ISS - Pass Details

Date: 12 November 2017
Orbit: 402 x 407 km, 51.6° (Epoch: 21 November)

Event Time Altitude Azimuth Distance (km) Brightness Sun altitude
Exits shadow 05:52:32 28° 300° (WNW) 794 -2.9 -14.1°
Maximum altitude 05:54:06 74° 20° (NNE) 423 -3.8 -13.8°
Drops below altitude 10° 05:57:21 10° 107° (ESE) 1,453 0.5 -13.3°
Sets 05:59:26 0° 109° (ESE) 2,311 2.0 -13.0°
